Time,TemperatureF,DewpointF,PressureIn,WindDirection,WindDirectionDegrees,WindSpeedMPH,WindSpeedGustMPH,Humidity,HourlyPrecipIn,Conditions,Clouds,dailyrainin,SoftwareType,DateUTC
2013-03-09 00:03:00,38.0,28.0,30.16,North,4,3.0,13.0,68,0.00,,,2.90,,2013-03-09 05:03:00,
2013-03-09 00:12:00,38.0,28.0,30.16,North,4,3.0,13.0,68,0.00,,,2.90,,2013-03-09 05:12:00,
2013-03-09 00:22:00,38.0,29.0,30.17,North,2,7.0,13.0,69,0.00,,,2.90,,2013-03-09 05:22:00,
2013-03-09 00:32:00,38.0,29.0,30.17,North,5,7.0,12.0,69,0.29,,,3.19,,2013-03-09 05:32:00,
2013-03-09 00:43:00,38.0,29.0,30.17,North,5,7.0,12.0,69,0.29,,,3.19,,2013-03-09 05:43:00,
2013-03-09 00:52:00,38.0,29.0,30.17,North,6,8.0,13.0,69,0.29,,,3.19,,2013-03-09 05:52:00,
2013-03-09 01:02:00,38.0,29.0,30.17,North,0,10.0,16.0,69,0.29,,,3.19,,2013-03-09 06:02:00,
2013-03-09 01:11:00,38.0,29.0,30.18,North,0,6.0,16.0,69,0.29,,,3.19,,2013-03-09 06:11:00,
2013-03-09 01:22:00,38.0,29.0,30.18,North,0,6.0,16.0,69,0.29,,,3.19,,2013-03-09 06:22:00,
2013-03-09 01:32:00,37.0,28.0,30.18,North,1,12.0,15.0,69,0.00,,,3.19,,2013-03-09 06:32:00,
2013-03-09 01:42:00,37.0,28.0,30.18,North,1,12.0,15.0,69,0.00,,,3.19,,2013-03-09 06:42:00,
2013-03-09 01:52:00,37.0,28.0,30.18,North,357,12.0,15.0,70,0.00,,,3.19,,2013-03-09 06:52:00,
2013-03-09 02:01:00,37.0,28.0,30.18,North,2,5.0,13.0,70,0.00,,,3.19,,2013-03-09 07:01:00,
2013-03-09 02:11:00,37.0,28.0,30.18,North,2,5.0,13.0,70,0.00,,,3.19,,2013-03-09 07:11:00,
2013-03-09 02:21:00,37.0,28.0,30.18,North,2,5.0,13.0,70,0.00,,,3.19,,2013-03-09 07:21:00,
2013-03-09 02:32:00,37.0,28.0,30.17,North,0,10.0,15.0,71,0.00,,,3.19,,2013-03-09 07:32:00,
2013-03-09 02:42:00,37.0,28.0,30.17,North,0,10.0,15.0,71,0.00,,,3.19,,2013-03-09 07:42:00,
2013-03-09 02:52:00,37.0,28.0,30.17,North,9,10.0,17.0,71,0.00,,,3.19,,2013-03-09 07:52:00,
2013-03-09 03:01:00,36.0,28.0,30.17,North,0,10.0,14.0,72,0.00,,,3.19,,2013-03-09 08:01:00,
2013-03-09 03:11:00,36.0,28.0,30.17,North,0,10.0,14.0,72,0.00,,,3.19,,2013-03-09 08:11:00,
2013-03-09 03:22:00,36.0,28.0,30.18,North,0,5.0,15.0,72,0.00,,,3.19,,2013-03-09 08:22:00,
2013-03-09 03:32:00,36.0,28.0,30.18,North,2,8.0,11.0,73,0.00,,,3.19,,2013-03-09 08:32:00,
2013-03-09 03:42:00,36.0,28.0,30.18,North,2,8.0,11.0,73,0.00,,,3.19,,2013-03-09 08:42:00,
2013-03-09 03:52:00,36.0,28.0,30.18,North,2,8.0,11.0,73,0.00,,,3.19,,2013-03-09 08:52:00,
2013-03-09 04:02:00,34.0,27.0,30.18,North,5,5.0,10.0,74,0.00,,,3.19,,2013-03-09 09:02:00,
2013-03-09 04:12:00,34.0,27.0,30.18,North,5,5.0,10.0,74,0.00,,,3.19,,2013-03-09 09:12:00,
2013-03-09 04:21:00,34.0,27.0,30.18,North,5,5.0,10.0,74,0.00,,,3.19,,2013-03-09 09:21:00,
2013-03-09 04:32:00,34.0,27.0,30.19,North,2,7.0,11.0,74,0.00,,,3.19,,2013-03-09 09:32:00,
2013-03-09 04:42:00,34.0,27.0,30.19,North,2,7.0,11.0,74,0.00,,,3.19,,2013-03-09 09:42:00,
2013-03-09 04:52:00,34.0,26.0,30.19,North,1,10.0,11.0,73,0.00,,,3.19,,2013-03-09 09:52:00,
2013-03-09 05:01:00,33.0,26.0,30.20,NNW,347,4.0,8.0,75,0.00,,,3.19,,2013-03-09 10:01:00,
2013-03-09 05:11:00,33.0,26.0,30.20,NNW,347,4.0,8.0,75,0.00,,,3.19,,2013-03-09 10:11:00,
2013-03-09 05:21:00,33.0,26.0,30.20,NNW,347,4.0,8.0,75,0.00,,,3.19,,2013-03-09 10:21:00,
2013-03-09 05:32:00,33.0,28.0,30.21,NNE,25,1.0,11.0,80,0.00,,,3.19,,2013-03-09 10:32:00,
2013-03-09 05:42:00,33.0,28.0,30.21,NNE,25,1.0,11.0,80,0.00,,,3.19,,2013-03-09 10:42:00,
2013-03-09 05:52:00,32.0,27.0,30.21,North,0,5.0,11.0,81,0.00,,,3.19,,2013-03-09 10:52:00,
2013-03-09 06:01:00,32.0,27.0,30.22,North,8,7.0,10.0,80,0.00,,,3.19,,2013-03-09 11:01:00,
2013-03-09 06:11:00,32.0,27.0,30.22,North,8,7.0,10.0,80,0.00,,,3.19,,2013-03-09 11:11:00,
2013-03-09 06:21:00,32.0,27.0,30.22,North,357,3.0,10.0,81,0.00,,,3.19,,2013-03-09 11:21:00,
2013-03-09 06:32:00,32.0,25.0,30.23,North,0,6.0,9.0,75,0.00,,,3.19,,2013-03-09 11:32:00,
2013-03-09 06:42:00,32.0,25.0,30.23,North,0,6.0,9.0,75,0.00,,,3.19,,2013-03-09 11:42:00,
2013-03-09 06:52:00,32.0,25.0,30.23,North,0,6.0,9.0,75,0.00,,,3.19,,2013-03-09 11:52:00,
2013-03-09 07:02:00,32.0,25.0,30.24,North,0,4.0,8.0,74,0.00,,,3.19,,2013-03-09 12:02:00,
2013-03-09 07:11:00,32.0,25.0,30.24,North,0,4.0,8.0,74,0.00,,,3.19,,2013-03-09 12:11:00,
2013-03-09 07:22:00,32.0,25.0,30.24,North,0,6.0,13.0,74,0.00,,,3.19,,2013-03-09 12:22:00,
2013-03-09 07:32:00,33.0,25.0,30.24,North,8,3.0,8.0,73,0.00,,,3.19,,2013-03-09 12:32:00,
2013-03-09 07:42:00,33.0,25.0,30.24,North,8,3.0,8.0,73,0.00,,,3.19,,2013-03-09 12:42:00,
2013-03-09 07:52:00,34.0,26.0,30.25,North,0,5.0,8.0,73,0.00,,,3.19,,2013-03-09 12:52:00,
2013-03-09 08:02:00,34.0,26.0,30.25,North,0,5.0,8.0,73,0.00,,,3.19,,2013-03-09 13:02:00,
2013-03-09 08:11:00,34.0,26.0,30.25,North,0,5.0,8.0,73,0.00,,,3.19,,2013-03-09 13:11:00,
2013-03-09 08:21:00,35.0,27.0,30.25,North,0,3.0,10.0,72,0.00,,,3.19,,2013-03-09 13:21:00,
2013-03-09 08:32:00,35.0,27.0,30.25,North,0,3.0,10.0,72,0.00,,,3.19,,2013-03-09 13:32:00,
2013-03-09 08:42:00,35.0,27.0,30.25,North,0,3.0,10.0,72,0.00,,,3.19,,2013-03-09 13:42:00,
2013-03-09 08:52:00,35.0,27.0,30.25,North,0,3.0,10.0,72,0.00,,,3.19,,2013-03-09 13:52:00,
2013-03-09 09:01:00,37.0,28.0,30.26,North,359,7.0,10.0,71,0.00,,,3.19,,2013-03-09 14:01:00,
2013-03-09 09:11:00,37.0,28.0,30.26,North,359,7.0,10.0,71,0.00,,,3.19,,2013-03-09 14:11:00,
2013-03-09 09:22:00,38.0,29.0,30.26,North,4,4.0,12.0,70,0.00,,,3.19,,2013-03-09 14:22:00,
2013-03-09 09:32:00,38.0,30.0,30.26,ENE,59,4.0,13.0,74,0.00,,,3.19,,2013-03-09 14:32:00,
2013-03-09 09:42:00,38.0,30.0,30.26,ENE,59,4.0,13.0,74,0.00,,,3.19,,2013-03-09 14:42:00,
2013-03-09 09:52:00,38.0,31.0,30.27,NE,35,3.0,13.0,75,0.00,,,3.19,,2013-03-09 14:52:00,
2013-03-09 10:02:00,38.0,31.0,30.27,NE,45,5.0,8.0,75,0.00,,,3.19,,2013-03-09 15:02:00,
2013-03-09 10:12:00,38.0,31.0,30.27,NE,45,5.0,8.0,75,0.00,,,3.19,,2013-03-09 15:12:00,
2013-03-09 10:22:00,38.0,31.0,30.27,NE,55,3.0,9.0,75,0.00,,,3.19,,2013-03-09 15:22:00,
2013-03-09 10:32:00,38.0,31.0,30.27,NNE,31,3.0,10.0,75,0.00,,,3.19,,2013-03-09 15:32:00,
2013-03-09 10:42:00,38.0,31.0,30.27,NNE,31,3.0,10.0,75,0.00,,,3.19,,2013-03-09 15:42:00,
2013-03-09 10:52:00,38.0,31.0,30.27,NNE,31,3.0,10.0,75,0.00,,,3.19,,2013-03-09 15:52:00,
2013-03-09 11:01:00,38.0,31.0,30.27,NE,52,4.0,10.0,76,0.00,,,3.19,,2013-03-09 16:01:00,
2013-03-09 11:12:00,38.0,31.0,30.27,NE,52,4.0,10.0,76,0.00,,,3.19,,2013-03-09 16:12:00,
2013-03-09 11:22:00,38.0,31.0,30.28,NNE,27,5.0,10.0,76,0.00,,,3.19,,2013-03-09 16:22:00,
2013-03-09 11:32:00,38.0,31.0,30.28,NNE,25,5.0,10.0,77,0.00,,,3.19,,2013-03-09 16:32:00,
2013-03-09 11:42:00,38.0,31.0,30.28,NNE,25,5.0,10.0,77,0.00,,,3.19,,2013-03-09 16:42:00,
2013-03-09 11:51:00,38.0,31.0,30.28,NE,43,3.0,10.0,77,0.00,,,3.19,,2013-03-09 16:51:00,
2013-03-09 12:01:00,38.0,32.0,30.28,ENE,59,4.0,10.0,78,0.00,,,3.19,,2013-03-09 17:01:00,
2013-03-09 12:11:00,38.0,32.0,30.28,ENE,59,4.0,10.0,78,0.00,,,3.19,,2013-03-09 17:11:00,
2013-03-09 12:22:00,38.0,32.0,30.28,NE,34,3.0,10.0,78,0.00,,,3.19,,2013-03-09 17:22:00,
2013-03-09 12:32:00,38.0,32.0,30.28,NE,38,3.0,5.0,78,0.00,,,3.19,,2013-03-09 17:32:00,
2013-03-09 12:42:00,38.0,32.0,30.28,NE,38,3.0,5.0,78,0.00,,,3.19,,2013-03-09 17:42:00,
2013-03-09 12:52:00,39.0,33.0,30.28,ENE,60,1.0,8.0,79,0.00,,,3.19,,2013-03-09 17:52:00,
2013-03-09 13:02:00,39.0,33.0,30.28,NE,52,2.0,6.0,78,0.00,,,3.19,,2013-03-09 18:02:00,
2013-03-09 13:11:00,39.0,33.0,30.28,NE,52,2.0,6.0,78,0.00,,,3.19,,2013-03-09 18:11:00,
2013-03-09 13:21:00,39.0,33.0,30.28,NNE,29,3.0,8.0,79,0.00,,,3.19,,2013-03-09 18:21:00,
2013-03-09 13:32:00,39.0,33.0,30.27,NE,41,2.0,8.0,80,0.00,,,3.19,,2013-03-09 18:32:00,
2013-03-09 13:42:00,39.0,33.0,30.27,NE,41,2.0,8.0,80,0.00,,,3.19,,2013-03-09 18:42:00,
2013-03-09 13:52:00,39.0,33.0,30.27,NNE,31,3.0,8.0,80,0.00,,,3.19,,2013-03-09 18:52:00,
2013-03-09 14:02:00,39.0,33.0,30.27,NNE,18,3.0,8.0,80,0.00,,,3.19,,2013-03-09 19:02:00,
2013-03-09 14:12:00,39.0,33.0,30.27,NNE,18,3.0,8.0,80,0.00,,,3.19,,2013-03-09 19:12:00,
2013-03-09 14:22:00,39.0,33.0,30.27,NNE,18,3.0,8.0,80,0.00,,,3.19,,2013-03-09 19:22:00,
2013-03-09 14:32:00,39.0,34.0,30.27,NE,37,3.0,6.0,82,0.00,,,2.61,,2013-03-09 19:32:00,
2013-03-09 14:42:00,39.0,34.0,30.27,NE,37,3.0,6.0,82,0.00,,,2.61,,2013-03-09 19:42:00,
2013-03-09 14:52:00,39.0,34.0,30.27,NE,37,3.0,6.0,82,0.00,,,2.61,,2013-03-09 19:52:00,
2013-03-09 15:02:00,39.0,34.0,30.27,ENE,68,1.0,5.0,83,0.00,,,2.32,,2013-03-09 20:02:00,
2013-03-09 15:11:00,39.0,34.0,30.27,ENE,68,1.0,5.0,83,0.00,,,2.32,,2013-03-09 20:11:00,
2013-03-09 15:22:00,39.0,34.0,30.27,East,101,3.0,5.0,82,0.00,,,2.32,,2013-03-09 20:22:00,
2013-03-09 15:32:00,39.0,34.0,30.28,NNE,30,3.0,6.0,82,0.00,,,2.03,,2013-03-09 20:32:00,
2013-03-09 15:42:00,39.0,34.0,30.28,NNE,30,3.0,6.0,82,0.00,,,2.03,,2013-03-09 20:42:00,
2013-03-09 15:52:00,39.0,34.0,30.28,NE,40,1.0,6.0,82,0.00,,,2.03,,2013-03-09 20:52:00,
2013-03-09 16:02:00,39.0,34.0,30.28,East,91,2.0,5.0,82,0.00,,,1.45,,2013-03-09 21:02:00,
2013-03-09 16:12:00,39.0,34.0,30.28,East,91,2.0,5.0,82,0.00,,,1.45,,2013-03-09 21:12:00,
2013-03-09 16:22:00,39.0,34.0,30.28,NE,36,3.0,5.0,81,0.00,,,1.45,,2013-03-09 21:22:00,
2013-03-09 16:32:00,38.0,33.0,30.29,ESE,113,3.0,6.0,83,0.00,,,1.16,,2013-03-09 21:32:00,
2013-03-09 16:42:00,38.0,33.0,30.29,ESE,113,3.0,6.0,83,0.00,,,1.16,,2013-03-09 21:42:00,
2013-03-09 16:52:00,38.0,33.0,30.29,East,100,2.0,6.0,83,0.00,,,1.16,,2013-03-09 21:52:00,
2013-03-09 17:01:00,38.0,34.0,30.30,East,80,2.0,4.0,84,0.00,,,0.87,,2013-03-09 22:01:00,
2013-03-09 17:11:00,38.0,34.0,30.30,East,80,2.0,4.0,84,0.00,,,0.87,,2013-03-09 22:11:00,
2013-03-09 17:21:00,38.0,34.0,30.30,East,85,2.0,4.0,85,0.00,,,0.87,,2013-03-09 22:21:00,
2013-03-09 17:32:00,37.0,33.0,30.31,East,85,0.0,2.0,86,0.00,,,0.58,,2013-03-09 22:32:00,
2013-03-09 17:42:00,37.0,33.0,30.31,East,85,0.0,2.0,86,0.00,,,0.58,,2013-03-09 22:42:00,
2013-03-09 17:51:00,36.0,32.0,30.32,East,85,1.0,2.0,86,0.00,,,0.58,,2013-03-09 22:51:00,
2013-03-09 18:01:00,36.0,33.0,30.32,East,85,0.0,1.0,87,0.00,,,0.58,,2013-03-09 23:01:00,
2013-03-09 18:11:00,36.0,33.0,30.32,East,85,0.0,1.0,87,0.00,,,0.58,,2013-03-09 23:11:00,
2013-03-09 18:22:00,36.0,33.0,30.32,East,85,0.0,1.0,87,0.00,,,0.58,,2013-03-09 23:22:00,
2013-03-09 18:32:00,35.0,32.0,30.33,East,85,0.0,0.0,88,0.00,,,0.29,,2013-03-09 23:32:00,
2013-03-09 18:42:00,35.0,32.0,30.33,East,85,0.0,0.0,88,0.00,,,0.29,,2013-03-09 23:42:00,
2013-03-09 18:52:00,34.0,31.0,30.34,East,85,0.0,0.0,87,0.00,,,0.29,,2013-03-09 23:52:00,
2013-03-09 19:02:00,32.0,28.0,30.34,East,85,0.0,0.0,86,0.00,,,0.29,,2013-03-10 00:02:00,
2013-03-09 19:12:00,32.0,28.0,30.34,East,85,0.0,0.0,86,0.00,,,0.29,,2013-03-10 00:12:00,
2013-03-09 19:22:00,32.0,29.0,30.35,East,85,0.0,0.0,88,0.00,,,0.29,,2013-03-10 00:22:00,
2013-03-09 19:32:00,31.0,31.0,30.34,East,85,0.0,0.0,100,0.00,,,0.29,,2013-03-10 00:32:00,
2013-03-09 19:42:00,31.0,31.0,30.34,East,85,0.0,0.0,100,0.00,,,0.29,,2013-03-10 00:42:00,
2013-03-09 19:52:00,31.0,31.0,30.34,East,85,0.0,0.0,100,0.00,,,0.29,,2013-03-10 00:52:00,
2013-03-09 20:01:00,30.0,30.0,30.35,East,85,0.0,0.0,100,0.00,,,0.29,,2013-03-10 01:01:00,
2013-03-09 20:11:00,30.0,30.0,30.35,East,85,0.0,0.0,100,0.00,,,0.29,,2013-03-10 01:11:00,
2013-03-09 20:22:00,29.0,27.0,30.35,East,85,0.0,0.0,94,0.00,,,0.29,,2013-03-10 01:22:00,
2013-03-09 20:32:00,28.0,28.0,30.35,East,85,0.0,0.0,100,0.00,,,0.29,,2013-03-10 01:32:00,
2013-03-09 20:42:00,28.0,28.0,30.35,East,85,0.0,0.0,100,0.00,,,0.29,,2013-03-10 01:42:00,
2013-03-09 20:52:00,28.0,28.0,30.35,East,85,0.0,0.0,100,0.00,,,0.29,,2013-03-10 01:52:00,
2013-03-09 21:01:00,28.0,28.0,30.36,East,85,0.0,0.0,100,0.00,,,0.29,,2013-03-10 02:01:00,
2013-03-09 21:11:00,28.0,28.0,30.36,East,85,0.0,0.0,100,0.00,,,0.29,,2013-03-10 02:11:00,
2013-03-09 21:22:00,27.0,27.0,30.36,East,85,0.0,0.0,100,0.00,,,0.29,,2013-03-10 02:22:00,
2013-03-09 21:32:00,27.0,27.0,30.36,East,85,0.0,0.0,100,0.00,,,0.29,,2013-03-10 02:32:00,
2013-03-09 21:42:00,27.0,27.0,30.36,East,85,0.0,0.0,100,0.00,,,0.29,,2013-03-10 02:42:00,
2013-03-09 21:52:00,26.0,26.0,30.37,East,85,0.0,0.0,100,0.00,,,0.29,,2013-03-10 02:52:00,
2013-03-09 22:02:00,26.0,26.0,30.38,East,80,0.0,0.0,100,0.00,,,0.29,,2013-03-10 03:02:00,
2013-03-09 22:11:00,26.0,26.0,30.38,ENE,71,0.0,0.0,100,0.00,,,0.29,,2013-03-10 03:11:00,
2013-03-09 22:22:00,26.0,26.0,30.38,ENE,71,0.0,0.0,100,0.00,,,0.29,,2013-03-10 03:22:00,
2013-03-09 22:32:00,26.0,26.0,30.37,ENE,71,0.0,0.0,100,0.00,,,0.29,,2013-03-10 03:32:00,
2013-03-09 22:42:00,26.0,26.0,30.37,ENE,71,0.0,0.0,100,0.00,,,0.29,,2013-03-10 03:42:00,
2013-03-09 22:52:00,26.0,26.0,30.37,ENE,71,0.0,0.0,100,0.00,,,0.29,,2013-03-10 03:52:00,
2013-03-09 23:01:00,26.0,26.0,30.37,ENE,71,0.0,0.0,100,0.00,,,0.29,,2013-03-10 04:01:00,
2013-03-09 23:11:00,26.0,26.0,30.37,ENE,71,0.0,0.0,100,0.00,,,0.29,,2013-03-10 04:11:00,
2013-03-09 23:21:00,25.0,25.0,30.37,ENE,71,0.0,0.0,100,0.00,,,0.29,,2013-03-10 04:21:00,
2013-03-09 23:32:00,26.0,26.0,30.37,ENE,71,0.0,1.0,100,0.00,,,0.29,,2013-03-10 04:32:00,
2013-03-09 23:42:00,26.0,26.0,30.37,ENE,71,0.0,1.0,100,0.00,,,0.29,,2013-03-10 04:42:00,
2013-03-09 23:52:00,25.0,25.0,30.38,ENE,71,0.0,2.0,100,0.00,,,0.29,,2013-03-10 04:52:00,